STARLINK-32178, 60413

Orbit data source: Space-Track

STARLINK-32178, 60413 is a payload satellite owned by SpaceX/Seattle (US) in LEO that was launched on Sat, 10 Aug 2024 UTC via an FALCON 9 launch vehicle from the Air Force Eastern Test Range (AFETR). Payload-class satellites include a variety of spacecraft equipped with specific instruments for various scientific and technological missions. These include communications satellites like Starlink; space stations such as the ISS; scientific satellites like the Hubble; Earth observation satellites from companies like Planet Labs, Umbra, and HawkEye 360; GPS; miniature CubeSats for education and research; and military/defense satellites.

Loading next visibility...
Identifier
60413, 2024-141R
Orbit
LEO
Country
Flag of USUS
Related business
Manufacturer
SpaceX/Seattle
Mission
Operational Commercial Communications
Bus & Motor
STARLINK V2M, Unknown motor
Mass
730 kg wet, ~700 kg dry
Launch date (UTC)
2024-08-10 (1 year ago)
Launch vehicle
FALCON 9
Launch site
Air Force Eastern Test Range (AFETR)
Object type
Payload
Rocket body
Debris
Shape & HBR
Box + 2 Pan, 17.7 m
Radar Cross Section
33.884 m², Large (>1 m²)

Expand to show TLE details & history
Last TLE update: 11 hours ago

TLE from 11 hours ago
0 STARLINK-32178
1 60413U 24141R   25299.95129561  .00000180  00000-0  18223-4 0  9990
2 60413  53.1598 143.8613 0001202  94.6212 265.4926 15.30187536 69044
Epoch: 2025-10-26T22:49Z
TLE epoch observation values (Epoch: 2025-10-26T22:49:51.940Z)
Latitude
-0.00004°
Longitude
125.83473°
Altitude
476.217 km
Speed
7.629 km/s
True Right ascension
09h 35m 26s
True Declination
0° 00' 00"
Sunlit
Object was in daylight at epoch
Visualization orbit readout
Latitude
Unknown
Longitude
Unknown
Altitude
Unknown
Speed
Unknown
Apparent Right ascension
Unknown
Apparent Declination
Unknown
Sunlit
N/A
Visualization observer readout
Local Sidereal Time
04:50:34
Azimuth
Unknown
Elevation
Unknown
Doppler factor
Unknown
Orbital elements
Apogee altitude
476.333 km
Perigee altitude
474.685 km
Semi-major axis
6,853.646 km
Eccentricity
0.00012
Inclination
53.1598°
RAAN
143.8613°
Arg. of periapsis
94.6212°
True anomaly
265.47887°
Mean anomaly
265.4926°
Eccentric anomaly
265.48573°
Mean motion
3.82526 °/min
Orbital period
94.11 mins
BSTAR
0.000018223
Loading maneuver chart data...
Computing Atmospheric mass density...
Loading historical data...
Loading historical data...
Loading historical data...
Loading historical data...
Loading historical data...
Loading historical data...
Loading historical data...

Documentation

Showing up to 5 results
|